GW0207 Weather Reports


Display with metric or nautical units.
time (UTC)temp
F
wind
direction
speed
MPH
gust
MPH
rain 1hr
in
rain 24hr
in
rain mn
in
humidity
%
barometer
mb
20260903224528 94 86 0.0 2.0 0.00 0.19 0.00 60 1013.8
20260903224028 94 81 0.0 2.0 0.00 0.19 0.00 60 1013.9
20260903223530 94 50 1.0 2.0 0.00 0.19 0.00 60 1013.8
20260903223029 95 31 1.0 4.0 0.00 0.19 0.00 58 1013.8
20260903222529 95 221 0.0 4.0 0.00 0.19 0.00 58 1013.9
20260903222028 95 292 0.0 2.0 0.00 0.19 0.00 59 1013.8
20260903221529 95 223 0.0 2.0 0.00 0.19 0.00 57 1013.7
20260903221029 95 228 0.0 3.0 0.00 0.19 0.00 57 1013.7
20260903220528 95 78 1.0 5.0 0.00 0.19 0.00 57 1013.7
20260903220029 95 225 1.0 5.0 0.00 0.19 0.00 57 1013.7
20260903215747 95 200 0.0 4.0 0.00 0.19 0.00 57 1013.8
20260903215029 94 165 0.0 3.0 0.00 0.19 0.00 59 1013.8
20260903214529 94 206 0.0 1.0 0.00 0.19 0.00 64 1013.8
20260903214254 93 242 0.0 1.0 0.00 0.19 0.00 64 1013.9
20260903214009 93 223 0.0 2.0 0.00 0.19 0.00 63 1013.8
20260903213029 93 234 0.0 2.0 0.00 0.19 0.00 63 1013.8
20260903212529 93 258 0.0 2.0 0.00 0.19 0.00 63 1013.9
20260903212029 94 246 0.0 3.0 0.00 0.19 0.00 62 1013.9
20260903211529 94 249 0.0 3.0 0.00 0.19 0.00 62 1013.9
20260903211029 94 275 0.0 2.0 0.00 0.19 0.00 65 1014.0
20260903210751 93 271 0.0 3.0 0.00 0.19 0.00 63 1013.9
20260903210031 93 223 0.0 3.0 0.00 0.19 0.00 64 1014.0
20260903205532 94 220 0.0 2.0 0.00 0.19 0.00 63 1014.0
20260903205032 94 246 0.0 1.0 0.00 0.19 0.00 64 1014.1
20260903204531 95 247 0.0 2.0 0.00 0.19 0.00 61 1014.1
20260903204031 95 223 0.0 2.0 0.00 0.19 0.00 61 1014.1
20260903203750 96 244 0.0 4.0 0.00 0.19 0.00 59 1014.0
20260903203253 97 248 0.0 4.0 0.00 0.19 0.00 57 1014.2
20260903202756 97 244 0.0 4.0 0.00 0.19 0.00 57 1014.2
20260903202031 97 19 0.0 3.0 0.00 0.19 0.00 59 1014.3
20260903201748 97 238 0.0 3.0 0.00 0.19 0.00 57 1014.3
20260903201031 97 223 0.0 2.0 0.00 0.19 0.00 56 1014.4
20260903200531 97 90 0.0 6.0 0.00 0.19 0.00 55 1014.4
20260903200254 98 33 0.0 6.0 0.00 0.19 0.00 55 1014.5
20260903195531 98 55 1.0 4.0 0.00 0.19 0.00 54 1014.5
20260903195517 98 97 1.0 4.0 0.00 0.19 0.00 54 1014.5
20260903194531 98 221 0.0 3.0 0.00 0.19 0.00 54 1014.6
20260903194032 98 263 0.0 4.0 0.00 0.19 0.00 54 1014.7
20260903193531 98 218 1.0 4.0 0.00 0.19 0.00 55 1014.7
20260903193255 98 221 1.0 4.0 0.00 0.19 0.00 54 1014.7
20260903193015 98 105 1.0 7.0 0.00 0.19 0.00 55 1014.8
20260903192031 98 195 1.0 7.0 0.00 0.19 0.00 54 1014.9
20260903191758 98 228 1.0 5.0 0.00 0.19 0.00 54 1014.9
20260903191022 98 207 1.0 4.0 0.00 0.19 0.00 54 1014.9
20260903190517 99 231 1.0 4.0 0.00 0.19 0.00 55 1015.0
20260903190011 99 287 1.0 2.0 0.00 0.19 0.00 54 1015.0
20260903185505 98 274 1.0 4.0 0.00 0.19 0.00 55 1015.1
20260903185005 98 358 1.0 4.0 0.00 0.19 0.00 57 1015.2
20260903184503 99 260 0.0 4.0 0.00 0.19 0.00 55 1015.3
20260903184003 98 75 0.0 2.0 0.00 0.19 0.00 55 1015.3
20260903183504 98 234 0.0 1.0 0.00 0.19 0.00 55 1015.3
20260903183001 98 18 0.0 1.0 0.00 0.19 0.00 55 1015.3
20260903182502 98 4 0.0 1.0 0.00 0.19 0.00 53 1015.4
20260903182226 98 319 0.0 1.0 0.00 0.19 0.00 54 1015.4
20260903181500 97 41 0.0 1.0 0.00 0.19 0.00 54 1015.4
20260903181001 98 41 1.0 2.0 0.00 0.19 0.00 53 1015.5
20260903180501 98 37 0.0 2.0 0.00 0.19 0.00 53 1015.5
20260903180001 98 252 0.0 2.0 0.00 0.19 0.00 54 1015.5
20260903175501 98 24 0.0 2.0 0.00 0.19 0.00 52 1015.6
20260903175000 98 37 0.0 2.0 0.00 0.19 0.00 54 1015.6
20260903174726 98 78 0.0 2.0 0.00 0.19 0.00 55 1015.6
20260903174227 97 284 0.0 2.0 0.00 0.19 0.00 56 1015.6
20260903173505 97 0 0.0 3.0 0.00 0.19 0.00 56 1015.7
20260903173002 96 31 0.0 3.0 0.00 0.19 0.00 57 1015.8
20260903172502 97 359 0.0 2.0 0.00 0.19 0.00 58 1015.8
20260903172004 96 38 0.0 2.0 0.00 0.19 0.00 57 1015.8
20260903171504 96 23 0.0 1.0 0.00 0.19 0.00 58 1015.9
20260903171004 95 40 0.0 2.0 0.00 0.19 0.00 59 1016.0
20260903170725 95 282 0.0 2.0 0.00 0.19 0.00 60 1016.1
20260903170004 95 262 0.0 1.0 0.00 0.19 0.00 59 1016.1
20260903165728 95 93 0.0 1.0 0.00 0.19 0.00 58 1016.2
20260903165003 94 34 0.0 1.0 0.00 0.19 0.00 60 1016.4
20260903164725 94 34 0.0 2.0 0.00 0.19 0.00 60 1016.3
20260903164002 94 43 0.0 3.0 0.00 0.19 0.00 60 1016.3
20260903163503 94 248 0.0 3.0 0.00 0.19 0.00 60 1016.4
20260903163003 93 223 0.0 2.0 0.00 0.19 0.00 62 1016.3
20260903162504 93 304 0.0 3.0 0.00 0.19 0.00 62 1016.4
20260903162003 93 347 0.0 3.0 0.00 0.19 0.00 62 1016.4
20260903161503 93 179 0.0 2.0 0.00 0.19 0.00 63 1016.5
20260903161004 93 253 0.0 2.0 0.00 0.19 0.00 63 1016.6
20260903160505 93 242 0.0 1.0 0.00 0.19 0.00 65 1016.6
20260903160003 92 53 0.0 3.0 0.00 0.19 0.00 66 1016.6
20260903155503 92 104 0.0 3.0 0.00 0.19 0.00 64 1016.7
20260903155002 92 240 0.0 2.0 0.00 0.19 0.00 65 1016.7
20260903154503 92 86 0.0 1.0 0.00 0.19 0.00 66 1016.8
20260903154002 92 44 0.0 1.0 0.00 0.19 0.00 68 1016.8
20260903153501 91 64 0.0 1.0 0.00 0.19 0.00 67 1016.8
20260903153000 91 91 0.0 2.0 0.00 0.19 0.00 67 1016.8
20260903152944 91 101 0.0 2.0 0.00 0.19 0.00 71 1016.8
20260903152001 90 320 0.0 0.0 0.00 0.19 0.00 70 1016.8
20260903151721 90 320 0.0 0.0 0.00 0.19 0.00 72 1016.8
20260903151227 90 353 0.0 0.0 0.00 0.19 0.00 73 1016.9
20260903150501 90 353 0.0 0.0 0.00 0.19 0.00 73 1017.0
20260903150000 90 354 0.0 1.0 0.00 0.19 0.00 73 1017.0
20260903145500 89 313 0.0 1.0 0.00 0.19 0.00 74 1017.0
20260903145003 90 164 0.0 0.0 0.00 0.19 0.00 75 1017.0
20260903144501 90 164 0.0 0.0 0.00 0.19 0.00 76 1016.9
20260903144000 90 162 0.0 1.0 0.00 0.19 0.00 74 1016.9
20260903143501 89 350 0.0 1.0 0.00 0.19 0.00 75 1016.9
20260903143001 89 350 0.0 1.0 0.00 0.19 0.00 76 1016.9
20260903142720 89 315 0.0 0.0 0.00 0.19 0.00 76 1016.8
20260903142001 89 304 0.0 0.0 0.00 0.19 0.00 77 1016.7
20260903141502 89 294 0.0 0.0 0.00 0.19 0.00 77 1016.7
20260903141001 89 355 0.0 0.0 0.00 0.19 0.00 79 1016.7
20260903140501 88 355 0.0 0.0 0.00 0.19 0.00 80 1016.8
20260903140001 87 356 0.0 1.0 0.00 0.19 0.00 81 1016.8
20260903135727 86 356 0.0 1.0 0.00 0.19 0.00 84 1016.8
20260903135001 86 344 0.0 0.0 0.00 0.19 0.00 84 1016.9
20260903134501 85 345 0.0 2.0 0.00 0.19 0.00 88 1016.9
20260903134001 84 345 0.0 2.0 0.00 0.19 0.00 89 1016.8
20260903133941 84 345 0.0 0.0 0.00 0.19 0.00 90 1016.8
20260903133001 83 345 0.0 0.0 0.00 0.19 0.00 92 1016.7
20260903132500 82 346 0.0 0.0 0.00 0.19 0.00 93 1016.7
20260903132001 81 345 0.0 0.0 0.00 0.19 0.00 95 1016.7
20260903131503 81 324 0.0 0.0 0.00 0.19 0.00 95 1016.8
20260903131001 80 324 0.0 1.0 0.00 0.19 0.00 96 1016.8
20260903130500 80 324 0.0 1.0 0.00 0.19 0.00 97 1016.8
20260903130440 80 244 0.0 0.0 0.00 0.19 0.00 98 1016.9
20260903125723 79 244 0.0 0.0 0.00 0.19 0.00 98 1016.9
20260903125001 78 244 0.0 0.0 0.00 0.19 0.00 98 1016.9
20260903124502 78 244 0.0 0.0 0.00 0.19 0.00 98 1016.9
20260903124000 78 244 0.0 0.0 0.00 0.19 0.00 98 1016.9
20260903123718 77 244 0.0 0.0 0.00 0.19 0.00 99 1017.0
20260903123001 76 244 0.0 0.0 0.00 0.19 0.00 99 1016.9
20260903122500 76 244 0.0 0.0 0.00 0.19 0.00 99 1016.9
20260903122001 75 233 0.0 0.0 0.00 0.19 0.00 99 1016.9
20260903121500 75 234 0.0 0.0 0.00 0.19 0.00 99 1016.9
20260903121000 74 234 0.0 0.0 0.00 0.19 0.00 98 1016.8
20260903120501 74 236 0.0 0.0 0.00 0.19 0.00 98 1016.9
20260903120001 74 237 0.0 0.0 0.00 0.19 0.00 98 1016.9
20260903115949 74 237 0.0 0.0 0.00 0.19 0.00 98 1016.9
20260903115001 74 237 0.0 0.0 0.00 0.19 0.00 98 1016.9
20260903114501 73 237 0.0 0.0 0.00 0.19 0.00 98 1016.9
20260903114001 73 237 0.0 0.0 0.00 0.19 0.00 98 1016.8
20260903113500 73 237 0.0 0.0 0.00 0.19 0.00 98 1016.8
20260903113001 73 237 0.0 0.0 0.00 0.19 0.00 98 1016.8
20260903112726 73 237 0.0 0.0 0.00 0.19 0.00 98 1016.8
20260903112000 73 237 0.0 0.0 0.00 0.19 0.00 98 1016.7
20260903111501 73 240 0.0 0.0 0.00 0.19 0.00 98 1016.7
20260903111002 72 239 0.0 0.0 0.00 0.19 0.00 98 1016.8
20260903110501 72 239 0.0 0.0 0.00 0.19 0.00 98 1016.6
20260903110000 72 239 0.0 0.0 0.00 0.19 0.00 98 1016.5
20260903105501 72 239 0.0 0.0 0.00 0.19 0.00 98 1016.5
20260903105224 72 239 0.0 0.0 0.00 0.19 0.00 98 1016.4
20260903104503 72 238 0.0 0.0 0.00 0.19 0.00 98 1016.4
20260903104003 72 239 0.0 0.0 0.00 0.19 0.00 98 1016.4
20260903103503 72 238 0.0 0.0 0.00 0.19 0.00 98 1016.4
20260903103002 73 237 0.0 0.0 0.00 0.19 0.00 98 1016.3
20260903102504 73 239 0.0 0.0 0.00 0.19 0.00 98 1016.3
20260903102003 73 239 0.0 0.0 0.00 0.19 0.00 98 1016.2
20260903101504 73 239 0.0 0.0 0.00 0.19 0.00 98 1016.1
20260903101003 73 239 0.0 0.0 0.00 0.19 0.00 98 1016.1
20260903100503 73 239 0.0 0.0 0.00 0.19 0.00 98 1016.1
20260903100004 73 239 0.0 0.0 0.00 0.19 0.00 98 1016.1
20260903095503 73 239 0.0 0.0 0.00 0.19 0.00 98 1016.1
20260903095003 73 239 0.0 0.0 0.00 0.19 0.00 98 1016.1
20260903094503 73 239 0.0 0.0 0.00 0.19 0.00 98 1016.1
20260903094003 73 239 0.0 0.0 0.00 0.19 0.00 98 1016.1
20260903093727 73 239 0.0 0.0 0.00 0.19 0.00 98 1016.0
20260903093003 73 239 0.0 0.0 0.00 0.19 0.00 98 1016.1
20260903092503 73 239 0.0 0.0 0.00 0.19 0.00 98 1016.1
20260903092228 73 239 0.0 0.0 0.00 0.19 0.00 98 1016.1
20260903091501 73 239 0.0 0.0 0.00 0.19 0.00 98 1016.0
20260903091218 73 239 0.0 0.0 0.00 0.19 0.00 98 1015.9
20260903090501 73 239 0.0 0.0 0.00 0.19 0.00 98 1016.0
20260903090001 73 239 0.0 0.0 0.00 0.19 0.00 98 1015.9
20260903085501 73 239 0.0 0.0 0.00 0.19 0.00 98 1015.9
20260903085001 73 239 0.0 0.0 0.00 0.19 0.00 98 1015.9
20260903084501 73 239 0.0 0.0 0.00 0.19 0.00 98 1015.8
20260903084001 73 239 0.0 0.0 0.00 0.19 0.00 98 1015.8
20260903083501 73 239 0.0 0.0 0.00 0.19 0.00 98 1015.8
20260903083000 73 239 0.0 0.0 0.00 0.19 0.00 98 1015.8
20260903082501 73 239 0.0 0.0 0.00 0.19 0.00 98 1015.7
20260903082001 73 239 0.0 0.0 0.00 0.19 0.00 98 1015.7
20260903081500 73 239 0.0 0.0 0.00 0.19 0.00 98 1015.8
20260903081001 73 239 0.0 0.0 0.00 0.19 0.00 98 1015.8
20260903080501 73 239 0.0 0.0 0.00 0.19 0.00 98 1015.8
20260903080004 73 239 0.0 0.0 0.00 0.19 0.00 98 1015.8
20260903075504 73 239 0.0 0.0 0.00 0.19 0.00 98 1015.7
20260903075223 73 239 0.0 0.0 0.00 0.19 0.00 98 1015.7
20260903074503 73 239 0.0 0.0 0.00 0.19 0.00 98 1015.6
20260903074221 73 239 0.0 0.0 0.00 0.19 0.00 98 1015.6
20260903073504 73 239 0.0 0.0 0.00 0.19 0.00 98 1015.5
20260903073225 73 239 0.0 0.0 0.00 0.19 0.00 98 1015.5
20260903072503 73 239 0.0 0.0 0.00 0.19 0.00 98 1015.5
20260903072004 73 239 0.0 0.0 0.00 0.19 0.00 98 1015.5
20260903071502 73 239 0.0 0.0 0.00 0.19 0.00 98 1015.5
20260903071003 73 239 0.0 0.0 0.00 0.19 0.00 98 1015.5
20260903070503 73 239 0.0 0.0 0.00 0.19 0.00 98 1015.5
20260903070227 73 239 0.0 0.0 0.00 0.19 0.00 98 1015.6
20260903065503 73 239 0.0 0.0 0.00 0.19 0.00 98 1015.6
20260903065003 73 239 0.0 0.0 0.00 0.19 0.00 97 1015.6
20260903064503 73 239 0.0 0.0 0.00 0.19 0.00 98 1015.5
20260903064007 73 239 0.0 0.0 0.00 0.19 0.00 98 1015.6
20260903063503 73 239 0.0 0.0 0.00 0.19 0.00 98 1015.5
20260903063003 73 239 0.0 0.0 0.00 0.19 0.00 97 1015.6
20260903062500 73 239 0.0 0.0 0.00 0.19 0.00 97 1015.7
20260903062003 73 239 0.0 0.0 0.00 0.19 0.00 97 1015.7
20260903061501 73 239 0.0 0.0 0.00 0.19 0.00 97 1015.8
20260903061001 73 239 0.0 0.0 0.00 0.19 0.00 97 1015.8
20260903060500 73 239 0.0 0.0 0.00 0.19 0.00 97 1015.8
20260903060001 73 239 0.0 0.0 0.00 0.19 0.00 97 1015.9
20260903055501 73 239 0.0 0.0 0.00 0.19 0.00 97 1015.9
20260903055002 73 239 0.0 0.0 0.00 0.19 0.00 97 1016.0
20260903054501 73 239 0.0 0.0 0.00 0.19 0.00 97 1016.0
20260903054000 73 239 0.0 0.0 0.00 0.19 0.00 97 1016.0
20260903053500 73 239 0.0 0.0 0.00 0.19 0.00 97 1015.9
20260903053001 73 239 0.0 0.0 0.00 0.19 0.00 97 1015.9
20260903052501 73 239 0.0 0.0 0.00 0.19 0.00 97 1016.1
20260903052001 74 239 0.0 0.0 0.00 0.19 0.00 97 1016.1
20260903051500 74 239 0.0 0.0 0.00 0.19 0.00 97 1016.1
20260903051001 74 239 0.0 0.0 0.00 0.19 0.00 97 1016.1
20260903050501 74 239 0.0 0.0 0.00 0.19 0.00 97 1016.1
20260903050003 74 239 0.0 0.0 0.00 0.19 0.00 97 1016.2
20260903045500 74 239 0.0 0.0 0.00 0.19 0.00 97 1016.1
20260903045001 74 239 0.0 0.0 0.00 0.19 0.00 97 1016.1
20260903044503 74 239 0.0 0.0 0.00 0.19 0.00 97 1016.0
20260903044005 74 239 0.0 0.0 0.00 0.19 0.00 97 1016.1
20260903043726 74 239 0.0 0.0 0.00 0.19 0.00 97 1016.1
20260903043003 74 239 0.0 0.0 0.00 0.19 0.00 97 1016.1
20260903042502 74 239 0.0 0.0 0.00 0.19 0.00 97 1016.1
20260903042003 73 239 0.0 0.0 0.00 0.19 0.00 97 1016.2
20260903041503 73 239 0.0 0.0 0.00 0.19 0.00 97 1016.3
20260903041002 73 239 0.0 0.0 0.00 0.19 0.00 97 1016.2
20260903040723 74 239 0.0 0.0 0.00 0.19 0.00 97 1016.1
20260903040005 74 239 0.0 0.0 0.00 0.19 0.00 97 1016.1
20260903035503 74 239 0.0 0.0 0.00 0.19 0.19 97 1016.1
20260903035004 74 239 0.0 0.0 0.00 0.19 0.19 97 1016.3
20260903034503 74 239 0.0 1.0 0.00 0.19 0.19 97 1016.3
20260903034002 74 239 0.0 1.0 0.00 0.19 0.19 97 1016.3
20260903033504 74 255 0.0 0.0 0.00 0.19 0.19 97 1016.3
20260903033005 74 255 0.0 0.0 0.00 0.19 0.19 97 1016.4
20260903032503 74 255 0.0 0.0 0.00 0.19 0.19 97 1016.4
20260903032003 74 255 0.0 0.0 0.00 0.19 0.19 97 1016.4
20260903031503 74 257 0.0 0.0 0.00 0.19 0.19 97 1016.4
20260903031004 74 257 0.0 0.0 0.00 0.19 0.19 97 1016.4
20260903030503 74 257 0.0 1.0 0.00 0.19 0.19 97 1016.5
20260903030005 74 257 0.0 1.0 0.00 0.19 0.19 97 1016.5
20260903025727 74 241 0.0 0.0 0.00 0.19 0.19 97 1016.4
20260903025004 74 241 0.0 0.0 0.00 0.19 0.19 97 1016.4
20260903024725 74 242 0.0 0.0 0.00 0.19 0.19 97 1016.5
20260903024231 74 242 0.0 0.0 0.00 0.19 0.19 97 1016.5
20260903023504 74 242 0.0 0.0 0.00 0.19 0.19 96 1016.3
20260903023003 74 242 0.0 0.0 0.00 0.19 0.19 96 1016.5
20260903022503 74 242 0.0 0.0 0.00 0.19 0.19 96 1016.5
20260903022004 74 242 0.0 0.0 0.00 0.19 0.19 96 1016.6
20260903021724 74 242 0.0 0.0 0.00 0.19 0.19 96 1016.5
20260903021000 74 242 0.0 0.0 0.00 0.19 0.19 96 1016.7
20260903020723 74 242 0.0 0.0 0.00 0.19 0.19 96 1016.8
20260903020002 74 242 0.0 3.0 0.00 0.19 0.19 96 1016.6
20260903015501 74 242 0.0 3.0 0.00 0.19 0.19 96 1016.5
20260903015001 74 236 0.0 0.0 0.00 0.19 0.19 96 1016.2
20260903014501 74 236 0.0 0.0 0.00 0.19 0.19 96 1016.2
20260903014001 74 236 0.0 0.0 0.00 0.19 0.19 95 1016.3
20260903013500 74 236 0.0 0.0 0.00 0.19 0.19 95 1016.3
20260903013001 74 236 0.0 1.0 0.01 0.19 0.19 95 1016.4
20260903012501 74 236 0.0 1.0 0.05 0.19 0.19 95 1016.5
20260903012001 75 235 0.0 1.0 0.10 0.19 0.19 95 1016.7
20260903011500 75 237 0.0 1.0 0.13 0.19 0.19 95 1016.5
20260903011000 75 259 0.0 1.0 0.14 0.19 0.19 94 1016.5
20260903010504 75 251 0.0 2.0 0.19 0.19 0.19 94 1016.4
20260903010004 76 262 0.0 2.0 0.19 0.19 0.19 94 1016.5
20260903005503 76 231 0.0 1.0 0.19 0.19 0.19 93 1016.3
20260903005224 76 291 0.0 3.0 0.19 0.19 0.19 93 1016.4
20260903004503 76 286 1.0 5.0 0.19 0.19 0.19 92 1016.8
20260903004003 76 257 1.0 10.0 0.19 0.19 0.19 92 1016.8
20260903003504 77 266 1.0 10.0 0.19 0.19 0.19 91 1016.8
20260903003003 78 207 2.0 9.0 0.18 0.18 0.18 89 1016.6
20260903002501 79 207 2.0 7.0 0.14 0.14 0.14 89 1016.6
20260903002001 80 228 2.0 8.0 0.09 0.09 0.09 86 1016.8
20260903001501 82 8 1.0 8.0 0.06 0.06 0.06 82 1016.8
20260903001223 85 280 2.0 9.0 0.05 0.05 0.05 77 1016.9
20260903000503 89 207 1.0 9.0 0.00 0.00 0.01 69 1016.8
20260903000226 90 209 0.0 3.0 0.00 0.00 0.00 65 1016.4
20260902235500 89 238 0.0 1.0 0.00 0.00 0.00 66 1015.8
20260902235002 90 225 0.0 0.0 0.00 0.00 0.00 65 1015.6
20260902234501 90 225 0.0 0.0 0.00 0.00 0.00 65 1015.5
20260902234221 91 219 0.0 0.0 0.00 0.00 0.00 64 1015.4
20260902233726 91 218 0.0 0.0 0.00 0.00 0.00 63 1015.3
20260902233001 92 218 0.0 0.0 0.00 0.00 0.00 62 1015.2
20260902232505 92 218 0.0 0.0 0.00 0.00 0.00 62 1015.4
20260902231959 92 218 0.0 0.0 0.00 0.00 0.00 61 1015.6
20260902231453 93 218 0.0 1.0 0.00 0.00 0.00 60 1015.6
20260902230946 93 218 0.0 1.0 0.00 0.00 0.00 59 1015.7
20260902230443 92 43 0.0 1.0 0.00 0.00 0.00 60 1015.6
20260902225943 93 270 0.0 0.0 0.00 0.00 0.00 60 1015.5
20260902225445 93 270 0.0 1.0 0.00 0.00 0.00 59 1015.5
20260902224941 93 270 0.0 1.0 0.00 0.00 0.00 60 1015.4